Home   Weather   Wilmington   Past weeks

Flag for USA Past Weather in Wilmington, North Carolina, USA — Yesterday and Last 2 Weeks

Now
39 °F

Sunny.


Feels Like: 30 °F
Forecast: 28 / 45 °F
Wind: 16 mph from North

Location: New Hanover International Airport

Current Time: Dec 9, 2016 at 10:39:36 am

Latest Report: Dec 9, 2016 at 9:53 am


Visibility: 10 mi

Pressure: 30.39 "Hg

Humidity: 45%

Dew Point: 19 °F

Location of WilmingtonLocation

Past Weather in Wilmington — Graph

°F

Wilmington Temperature Yesterday

Maximum temperature yesterday: 60 °F (at 12:53 pm)
Minimum temperature yesterday: 41 °F (at 11:53 pm)
Average temperature yesterday: 49 °F

High & Low Weather Summary for the Past Weeks

 TemperatureHumidityPressure
High77 °F (Nov 24, 11:53 am)100% (Nov 24, 11:53 pm)30.38 "Hg (Nov 24, 11:53 pm)
Low32 °F (Nov 27, 6:53 am)35% (Dec 1, 12:53 pm)29.62 "Hg (Dec 6, 2:53 pm)
Average55 °F80%30.08 "Hg
* Reported Nov 24 8:53 am — Dec 9 8:53 am, Wilmington, Weather by CustomWeather, © 2016

Note: Actual official high and low records may vary slightly from our data, if they occured in-between our weather recording intervals... More about our weather records

Advertising

Wilmington Weather History for the Previous 24 Hours

Scroll right to see more
 ConditionsComfort  
Time TempWeatherWind HumidityBarometerVisibility
8:53 am
Fri, Dec 9
38 °FSunny.13 mph46%30.38 "Hg10 mi
7:53 am34 °FSunny.7 mph59%30.36 "Hg10 mi
6:53 am33 °FClear.6 mph61%30.33 "Hg10 mi
5:53 am35 °FClear.8 mph54%30.29 "Hg10 mi
4:53 am37 °FClear.12 mph52%30.26 "Hg10 mi
3:53 am36 °FClear.6 mph62%30.27 "Hg10 mi
2:53 am39 °FClear.10 mph55%30.25 "Hg10 mi
1:53 am39 °FClear.10 mph65%30.24 "Hg10 mi
12:53 am40 °FClear.7 mph65%30.22 "Hg10 mi
11:53 pm
Thu, Dec 8
41 °FClear.5 mph65%30.21 "Hg10 mi
10:53 pm42 °FClear.5 mph60%30.22 "Hg10 mi
9:53 pm43 °FClear.6 mph53%30.22 "Hg10 mi
8:53 pm46 °FClear.9 mph50%30.21 "Hg10 mi
7:53 pm46 °FClear.12 mph54%30.19 "Hg10 mi
6:53 pm48 °FClear.9 mph52%30.17 "Hg10 mi
5:53 pm50 °FPassing clouds.12 mph54%30.14 "Hg10 mi
4:53 pm52 °FPassing clouds.10 mph61%30.10 "Hg10 mi
3:53 pm55 °FMore clouds than sun.12 mph72%30.06 "Hg10 mi
2:53 pm56 °FOvercast.15 mph70%30.04 "Hg10 mi
1:53 pm60 °FPartly sunny.10 mph69%30.03 "Hg10 mi
12:53 pm60 °FScattered clouds.9 mph69%30.03 "Hg10 mi
12:00 pm58 °FPartly sunny.12 mph78%30.06 "Hg10 mi
10:53 am56 °FOvercast.9 mph87%30.09 "Hg10 mi
Weather by CustomWeather, © 2016

See weather overviewHow to use our weather pages